This is the latest recevied weather packets stored in our database for station/object KF5WCW-1. If no packets are shown the sender has not sent any weather packets the latest 1 day(s).
| Time | Temp. | Humidity | Pressure | Rain* | Wind** | Luminosity | Snow |
|---|---|---|---|---|---|---|---|
| 1778023569 | 10.56° C | 52% | 0 hPa | 0 mm | 4.02 m/s, 149° | - | - |
| 1778023269 | 10.56° C | 53% | 0 hPa | 0 mm | 7.6 m/s, 168° | - | - |
| 1778022969 | 10° C | 53% | 0 hPa | 0 mm | 4.02 m/s, 160° | - | - |
| 1778022669 | 10° C | 55% | 0 hPa | 0 mm | 2.68 m/s, 70° | - | - |
| 1778022369 | 9.44° C | 56% | 0 hPa | 0 mm | 4.02 m/s, 177° | - | - |
| 1778022069 | 10° C | 55% | 0 hPa | 0 mm | 3.58 m/s, 170° | - | - |
| 1778021769 | 10° C | 55% | 0 hPa | 0 mm | 4.47 m/s, 212° | - | - |
| 1778021469 | 10.56° C | 55% | 0 hPa | 0 mm | 4.02 m/s, 160° | - | - |
| 1778021169 | 10° C | 55% | 0 hPa | 0 mm | 7.15 m/s, 143° | - | - |
| 1778020869 | 10° C | 54% | 0 hPa | 0 mm | 4.02 m/s, 177° | - | - |
| 1778020569 | 11.11° C | 54% | 0 hPa | 0 mm | 4.02 m/s, 191° | - | - |
| 1778020269 | 10.56° C | 52% | 0 hPa | 0 mm | 6.71 m/s, 154° | - | - |
| 1778019969 | 11.67° C | 51% | 0 hPa | 0 mm | 5.81 m/s, 189° | - | - |
| 1778019669 | 11.67° C | 51% | 0 hPa | 0 mm | 5.36 m/s, 154° | - | - |
| 1778019369 | 12.22° C | 51% | 0 hPa | 0 mm | 3.58 m/s, 163° | - | - |
| 1778019069 | 11.67° C | 50% | 0 hPa | 0 mm | 4.02 m/s, 142° | - | - |
| 1778018769 | 12.22° C | 51% | 0 hPa | 0 mm | 5.36 m/s, 150° | - | - |
| 1778018469 | 11.11° C | 52% | 0 hPa | 0 mm | 3.13 m/s, 115° | - | - |
| 1778018169 | 11.11° C | 52% | 0 hPa | 0 mm | 3.58 m/s, 175° | - | - |
| 1778017869 | 11.11° C | 53% | 0 hPa | 0 mm | 4.47 m/s, 170° | - | - |
| 1778017569 | 11.11° C | 52% | 0 hPa | 0 mm | 4.02 m/s, 170° | - | - |
| 1778017269 | 11.67° C | 51% | 0 hPa | 0 mm | 5.81 m/s, 158° | - | - |
| 1778016969 | 11.67° C | 52% | 0 hPa | 0 mm | 4.02 m/s, 151° | - | - |
| 1778016669 | 11.67° C | 52% | 0 hPa | 0 mm | 3.58 m/s, 175° | - | - |
| 1778016369 | 10.56° C | 53% | 0 hPa | 0 mm | 3.58 m/s, 157° | - | - |
* Rain latest hour (hover to see other rain measurements)
** Current wind speed in m/s (hover to see current wind gust speed)